period_start,C,m1,H,J0,J1,J2,J3,J4,J5,JA,JB,JC,JD,JJ,JK,JN,#
2014-07-08 00:00:57,-0.00,0.40,0.00,26.74,31.30,33.57,9.38,38.42,1008.32,2023.02,3332.00,3169.88,3454.77,499.78,486.38,16.50,0000 0000 0000 0000 000000
2014-07-08 00:05:58,0.01,0.40,0.00,26.78,31.30,33.56,9.34,38.33,1008.30,2023.06,3332.00,3169.82,3454.73,500.33,486.66,16.54,0000 0000 0000 0000 000000
2014-07-08 00:10:59,0.01,0.40,0.00,26.83,31.30,33.56,9.26,38.19,1008.28,2023.03,3331.99,3169.78,3454.60,499.42,485.87,16.58,0000 0000 0000 0000 000000
2014-07-08 00:16:00,0.01,0.40,0.00,26.90,31.30,33.56,9.40,38.38,1008.30,2023.01,3331.99,3169.42,3454.23,500.15,486.38,16.62,0000 0000 0000 0000 000000
2014-07-08 00:21:02,-0.00,0.40,0.00,26.91,31.30,33.55,9.34,38.29,1008.17,2023.03,3331.99,3169.47,3454.25,499.76,485.84,16.66,0000 0000 0000 0000 000000
2014-07-08 00:26:03,0.01,0.40,0.00,26.96,31.31,33.55,9.40,38.40,1008.10,2023.03,3331.98,3169.35,3454.16,500.35,486.41,16.71,0000 0000 0000 0000 000000
2014-07-08 00:31:04,0.00,0.40,0.00,27.01,31.32,33.56,9.46,38.46,1007.87,2023.00,3331.95,3169.05,3454.02,500.07,485.88,16.75,0000 0000 0000 0000 000000
2014-07-08 00:36:05,0.00,0.40,0.00,27.05,31.32,33.56,9.34,38.33,1007.84,2023.00,3331.81,3169.01,3454.00,499.87,485.54,16.79,0000 0000 0000 0000 000000
2014-07-08 00:41:06,0.00,0.40,0.00,27.11,31.35,33.57,9.39,38.38,1007.84,2023.00,3331.65,3169.00,3454.00,500.36,485.88,16.83,0000 0000 0000 0000 000000
2014-07-08 00:46:07,0.00,0.40,0.00,27.16,31.36,33.58,9.40,38.37,1007.83,2023.00,3331.59,3169.00,3453.99,500.09,485.65,16.87,0000 0000 0000 0000 000000
2014-07-08 00:51:08,0.01,0.40,0.00,27.19,31.37,33.59,9.28,38.33,1007.81,2022.99,3331.11,3168.99,3453.96,499.84,485.37,16.92,0000 0000 0000 0000 000000
2014-07-08 00:56:09,0.00,0.40,0.00,27.23,31.39,33.62,9.36,38.22,1007.83,2022.99,3331.04,3168.98,3453.89,499.49,485.06,16.96,0000 0000 0000 0000 000000
2014-07-08 01:01:11,0.01,0.40,0.00,27.28,31.40,33.64,9.46,38.38,1007.80,2022.99,3331.00,3168.89,3453.41,500.10,485.57,17.00,0000 0000 0000 0000 000000
2014-07-08 01:06:12,0.01,0.41,0.00,27.31,31.42,33.66,9.39,38.37,1007.82,2022.96,3331.00,3168.54,3453.06,500.23,485.75,17.04,0000 0000 0000 0000 000000
2014-07-08 01:11:13,0.01,0.41,0.00,27.34,31.45,33.69,9.38,38.33,1007.83,2022.95,3330.98,3168.19,3453.00,500.16,485.44,17.08,0000 0000 0000 0000 000000
2014-07-08 01:16:14,-0.02,0.41,0.00,27.36,31.47,33.72,9.23,38.17,1007.83,2022.79,3330.84,3168.02,3453.00,499.68,485.11,17.12,0000 0000 0000 0000 000000
2014-07-08 01:21:15,-0.01,0.40,0.00,27.38,31.49,33.74,9.38,38.26,1007.84,2022.52,3330.34,3168.00,3452.98,500.27,485.52,17.17,0000 0000 0000 0000 000000
2014-07-08 01:26:16,-0.03,0.40,0.00,27.40,31.51,33.77,9.18,38.08,1007.84,2022.32,3330.09,3168.00,3452.90,499.56,484.80,17.21,0000 0000 0000 0000 000000
2014-07-08 01:31:17,0.01,0.40,0.00,27.42,31.53,33.79,9.41,38.24,1007.84,2022.27,3330.02,3167.99,3452.68,500.29,485.57,17.25,0000 0000 0000 0000 000000
2014-07-08 01:36:18,-0.01,0.40,0.00,27.43,31.55,33.82,9.25,38.23,1007.86,2022.08,3330.00,3167.92,3452.14,499.76,485.02,17.29,0000 0000 0000 0000 000000
2014-07-08 01:41:19,0.01,0.40,0.00,27.46,31.57,33.84,9.31,38.27,1007.88,2022.04,3329.97,3167.58,3452.01,499.76,485.06,17.33,0000 0000 0000 0000 000000
2014-07-08 01:46:20,0.01,0.40,0.00,27.47,31.59,33.87,9.39,38.30,1007.85,2022.00,3329.71,3167.11,3452.00,499.77,484.74,17.38,0000 0000 0000 0000 000000
2014-07-08 01:51:21,0.01,0.40,0.00,27.48,31.61,33.89,9.35,38.23,1008.01,2022.00,3329.14,3167.00,3451.94,500.22,485.21,17.42,0000 0000 0000 0000 000000
2014-07-08 01:56:22,0.00,0.41,0.00,27.51,31.63,33.91,9.28,38.20,1008.12,2022.00,3329.01,3167.00,3451.82,499.61,484.79,17.46,0000 0000 0000 0000 000000
2014-07-08 02:01:23,0.00,0.41,0.00,27.52,31.65,33.93,9.30,38.07,1008.10,2022.00,3329.00,3166.99,3451.43,500.10,485.37,17.50,0000 0000 0000 0000 000000
2014-07-08 02:06:24,0.00,0.41,0.00,27.55,31.67,33.96,9.32,38.12,1008.05,2021.98,3328.99,3166.83,3451.06,499.88,485.09,17.54,0000 0000 0000 0000 000000
2014-07-08 02:11:25,0.02,0.41,0.00,27.58,31.69,33.98,9.45,38.09,1007.96,2021.95,3328.93,3166.37,3451.00,500.07,485.18,17.58,0000 0000 0000 0000 000000
2014-07-08 02:16:25,0.00,0.41,0.00,27.60,31.70,33.99,9.34,39.70,1008.00,2021.85,3328.29,3166.04,3450.99,500.24,485.26,17.63,0000 0000 0000 0000 000000
2014-07-08 02:21:26,-0.02,0.41,0.00,27.60,31.72,34.01,9.35,39.89,1007.90,2021.59,3328.01,3166.00,3450.89,499.85,484.79,17.67,0000 0000 0000 0000 000000
2014-07-08 02:26:28,-0.02,0.40,0.00,27.63,31.74,34.04,9.34,39.54,1007.89,2021.22,3327.99,3165.98,3450.40,500.19,484.98,17.71,0000 0000 0000 0000 000000
2014-07-08 02:31:29,-0.01,0.40,0.00,27.66,31.76,34.05,9.31,39.01,1007.91,2021.08,3327.99,3165.98,3450.05,500.21,485.13,17.75,0000 0000 0000 0000 000000
2014-07-08 02:36:30,0.01,0.40,0.00,27.70,31.77,34.07,9.32,38.89,1007.87,2021.07,3327.96,3165.75,3450.00,500.23,484.92,17.79,0000 0000 0000 0000 000000
2014-07-08 02:41:32,0.01,0.41,0.00,27.71,31.80,34.09,9.38,38.41,1007.86,2021.01,3327.83,3165.19,3450.00,500.55,485.12,17.84,0000 0000 0000 0000 000000
2014-07-08 02:46:33,0.01,0.41,0.00,27.72,31.81,34.11,9.36,38.68,1007.86,2021.00,3327.53,3165.04,3449.97,500.62,485.26,17.88,0000 0000 0000 0000 000000
2014-07-08 02:51:34,0.01,0.41,0.00,27.74,31.83,34.12,9.25,38.39,1007.93,2021.00,3327.14,3165.01,3449.84,499.89,484.51,17.92,0000 0000 0000 0000 000000
2014-07-08 02:56:35,0.00,0.41,0.00,27.76,31.86,34.14,9.33,38.29,1007.99,2021.00,3327.09,3165.00,3449.61,500.36,485.05,17.96,0000 0000 0000 0000 000000
2014-07-08 03:01:36,0.01,0.41,0.00,27.77,31.88,34.16,9.30,38.27,1008.11,2020.99,3327.01,3165.00,3449.16,500.08,484.92,18.00,0000 0000 0000 0000 000000
2014-07-08 03:06:38,0.00,0.41,0.00,27.81,31.90,34.18,9.31,38.39,1008.25,2020.98,3327.00,3164.98,3449.04,499.54,484.38,18.05,0000 0000 0000 0000 000000
2014-07-08 03:11:39,0.00,0.41,0.00,27.85,31.92,34.20,9.32,38.33,1008.13,2020.92,3327.00,3164.67,3449.00,499.81,484.50,18.09,0000 0000 0000 0000 000000
2014-07-08 03:16:41,0.01,0.41,0.00,27.88,31.95,34.22,9.26,39.26,1008.09,2020.85,3326.95,3164.26,3448.99,499.91,484.37,18.13,0000 0000 0000 0000 000000
2014-07-08 03:21:42,-0.03,0.41,0.00,27.89,31.96,34.24,9.34,39.07,1008.24,2020.55,3326.63,3164.03,3448.90,500.11,484.80,18.17,0000 0000 0000 0000 000000
2014-07-08 03:26:43,-0.01,0.41,0.00,27.91,31.99,34.27,9.29,38.91,1008.30,2020.24,3326.22,3164.00,3448.49,499.77,484.26,18.21,0000 0000 0000 0000 000000
2014-07-08 03:31:44,-0.01,0.41,0.00,27.92,32.01,34.29,9.41,39.50,1008.30,2020.05,3326.00,3163.98,3448.03,500.11,484.59,18.26,0000 0000 0000 0000 000000
2014-07-08 03:36:44,0.00,0.41,0.00,27.95,32.03,34.31,9.27,38.73,1008.29,2020.01,3325.99,3163.94,3448.00,499.93,484.52,18.30,0000 0000 0000 0000 000000
2014-07-08 03:41:45,0.02,0.41,0.00,27.96,32.05,34.33,9.23,38.58,1008.28,2020.00,3325.95,3163.53,3447.99,499.80,484.30,18.34,0000 0000 0000 0000 000000
2014-07-08 03:46:46,0.03,0.41,0.00,27.99,32.07,34.35,9.38,39.01,1008.31,2020.00,3325.28,3163.03,3447.58,500.12,484.62,18.38,0000 0000 0000 0000 000000
2014-07-08 03:51:48,0.00,0.41,0.00,28.03,32.10,34.37,9.35,38.75,1008.31,2020.00,3325.04,3163.00,3447.25,500.07,484.53,18.42,0000 0000 0000 0000 000000
2014-07-08 03:56:49,0.00,0.41,0.00,28.05,32.12,34.40,9.34,38.69,1008.31,2019.99,3325.00,3162.98,3447.02,500.42,484.71,18.46,0000 0000 0000 0000 000000
2014-07-08 04:01:50,-0.00,0.41,0.00,28.06,32.15,34.42,9.38,39.02,1008.31,2019.94,3324.98,3162.86,3447.00,499.88,484.40,18.51,0000 0000 0000 0000 000000
2014-07-08 04:06:51,0.01,0.41,0.00,28.10,32.16,34.44,9.35,38.95,1008.30,2019.77,3324.64,3162.32,3446.87,500.28,484.60,18.55,0000 0000 0000 0000 000000
2014-07-08 04:11:52,-0.00,0.41,0.00,28.12,32.19,34.46,9.34,39.17,1008.18,2019.50,3324.14,3162.03,3446.41,500.10,484.35,18.59,0000 0000 0000 0000 000000
2014-07-08 04:16:53,-0.03,0.41,0.00,28.16,32.21,34.48,9.30,38.87,1008.05,2019.17,3324.01,3162.00,3446.05,499.97,484.11,18.63,0000 0000 0000 0000 000000
2014-07-08 04:21:54,-0.01,0.41,0.00,28.19,32.24,34.51,9.29,38.83,1007.87,2019.08,3324.00,3162.00,3446.00,499.80,483.71,18.67,0000 0000 0000 0000 000000
2014-07-08 04:26:55,-0.00,0.41,0.00,28.18,32.26,34.53,9.32,38.83,1007.94,2019.02,3323.99,3161.94,3445.99,500.10,484.14,18.72,0000 0000 0000 0000 000000
2014-07-08 04:31:56,0.02,0.41,0.00,28.20,32.29,34.55,9.33,38.85,1007.88,2019.00,3323.87,3161.60,3445.86,499.86,483.85,18.76,0000 0000 0000 0000 000000
2014-07-08 04:36:57,0.03,0.41,0.00,28.22,32.31,34.57,9.30,38.67,1007.85,2019.00,3323.25,3161.06,3445.32,499.80,483.87,18.80,0000 0000 0000 0000 000000
2014-07-08 04:41:58,0.00,0.41,0.00,28.25,32.33,34.60,9.27,38.55,1007.83,2019.00,3323.10,3161.04,3445.12,499.77,483.61,18.84,0000 0000 0000 0000 000000
2014-07-08 04:46:59,0.00,0.41,0.00,28.27,32.36,34.62,9.25,38.45,1007.83,2019.00,3323.00,3161.01,3445.01,500.14,484.03,18.88,0000 0000 0000 0000 000000
2014-07-08 04:52:00,0.03,0.41,0.00,28.28,32.38,34.64,9.22,38.56,1007.83,2018.96,3322.76,3160.73,3444.74,499.32,483.12,18.93,0000 0000 0000 0000 000000
2014-07-08 04:57:02,0.02,0.41,0.00,28.29,32.40,34.67,9.33,38.73,1007.83,2018.92,3322.08,3160.09,3444.08,500.32,483.98,18.97,0000 0000 0000 0000 000000
2014-07-08 05:02:03,-0.05,0.41,0.00,28.33,32.42,34.69,9.35,38.50,1007.84,2018.64,3322.01,3160.00,3444.01,500.15,483.80,19.01,0000 0000 0000 0000 000000
2014-07-08 05:07:04,-0.03,0.41,0.00,28.36,32.45,34.71,9.29,38.51,1007.84,2018.27,3321.98,3159.99,3443.97,499.77,483.56,19.05,0000 0000 0000 0000 000000
2014-07-08 05:12:04,0.00,0.41,0.00,28.37,32.46,34.74,9.37,38.52,1007.83,2018.07,3321.83,3159.91,3443.79,500.13,483.79,19.09,0000 0000 0000 0000 000000
2014-07-08 05:17:06,0.08,0.41,0.00,28.38,32.49,34.75,9.24,38.48,1007.83,2018.01,3320.33,3158.98,3442.70,500.13,483.74,19.13,0000 0000 0000 0000 000000
2014-07-08 05:22:07,0.01,0.41,0.00,28.26,32.50,34.80,9.35,38.49,1007.83,2018.00,3320.00,3158.45,3442.09,499.96,483.79,19.18,0000 0000 0000 0000 000000
2014-07-08 05:27:08,0.01,0.41,0.00,28.07,32.52,34.85,9.28,38.38,1007.83,2018.00,3319.98,3158.19,3442.01,499.71,483.74,19.22,0000 0000 0000 0000 000000
2014-07-08 05:32:09,0.01,0.41,0.00,27.90,32.52,34.88,9.30,38.38,1007.83,2018.00,3319.88,3158.04,3442.00,500.03,484.52,19.26,0000 0000 0000 0000 000000
2014-07-08 05:37:10,-0.00,0.41,0.00,27.81,32.52,34.92,9.32,38.45,1007.83,2018.00,3319.84,3158.07,3442.00,500.07,484.56,19.30,0000 0000 0000 0000 000000
2014-07-08 05:42:11,-0.00,0.41,0.00,27.83,32.52,34.90,9.47,38.49,1007.82,2018.00,3319.91,3158.20,3442.01,500.09,484.58,19.34,0000 0000 0000 0000 000000
2014-07-08 05:47:12,0.00,0.41,0.00,27.83,32.51,34.87,9.38,38.44,1007.83,2018.00,3319.85,3158.21,3442.01,500.32,484.71,19.39,0000 0000 0000 0000 000000
2014-07-08 05:52:13,-0.00,0.41,0.00,27.83,32.50,34.83,9.37,38.27,1007.83,2018.00,3319.84,3158.24,3442.01,500.49,484.92,19.43,0000 0000 0000 0000 000000
2014-07-08 05:57:14,0.00,0.41,0.00,27.85,32.49,34.80,9.27,38.44,1007.78,2018.00,3319.71,3158.31,3442.02,500.09,484.53,19.47,0000 0000 0000 0000 000000
2014-07-08 06:02:15,0.00,0.41,0.00,27.88,32.47,34.76,9.30,38.37,1007.83,2018.00,3319.42,3158.25,3442.01,500.12,484.62,19.51,0000 0000 0000 0000 000000
2014-07-08 06:07:16,-0.01,0.41,0.00,27.89,32.46,34.74,9.36,38.42,1007.83,2018.01,3319.71,3158.44,3442.02,500.20,484.37,19.55,0000 0000 0000 0000 000000
2014-07-08 06:12:17,-0.01,0.41,0.00,27.92,32.45,34.73,9.25,38.30,1007.83,2018.02,3319.83,3158.65,3442.07,499.56,483.97,19.60,0000 0000 0000 0000 000000
2014-07-08 06:17:19,0.01,0.41,0.00,27.94,32.45,34.70,9.31,38.42,1007.83,2018.05,3319.71,3158.70,3442.07,499.74,484.06,19.64,0000 0000 0000 0000 000000
2014-07-08 06:22:20,-0.01,0.41,0.00,27.94,32.42,34.68,9.38,38.45,1007.83,2018.04,3319.68,3158.73,3442.08,500.45,484.76,19.68,0000 0000 0000 0000 000000
2014-07-08 06:27:21,0.01,0.41,0.00,27.94,32.42,34.68,9.40,38.55,1007.84,2018.06,3319.42,3158.64,3442.07,499.83,484.11,19.72,0000 0000 0000 0000 000000
2014-07-08 06:32:22,0.01,0.41,0.00,27.93,32.42,34.67,9.33,38.45,1007.91,2018.10,3319.29,3158.52,3442.04,500.21,484.53,19.76,0000 0000 0000 0000 000000
2014-07-08 06:37:23,0.01,0.41,0.00,27.92,32.40,34.67,9.28,38.46,1008.27,2018.20,3319.28,3158.75,3442.11,499.43,484.23,19.80,0000 0000 0000 0000 000000
2014-07-08 06:42:24,0.03,0.41,0.00,27.87,32.40,34.67,9.34,38.43,1008.30,2018.41,3319.14,3158.75,3442.10,500.43,485.07,19.85,0000 0000 0000 0000 000000
2014-07-08 06:47:25,-0.00,0.41,0.00,27.83,32.40,34.67,9.39,38.29,1008.30,2018.44,3319.02,3158.62,3442.05,500.30,485.01,19.89,0000 0000 0000 0000 000000
2014-07-08 06:52:26,0.01,0.42,0.00,27.64,32.38,34.70,9.26,38.29,1008.24,2018.62,3319.02,3158.73,3442.03,499.84,484.85,19.93,0000 0000 0000 0000 000000
2014-07-08 06:57:27,0.03,0.42,0.00,27.40,32.37,34.80,9.36,38.36,1008.21,2018.84,3319.00,3158.88,3442.09,499.82,485.29,19.97,0000 0000 0000 0000 000000
2014-07-08 07:02:28,-0.00,0.42,0.00,27.18,32.35,34.96,9.35,38.28,1008.30,2018.96,3319.00,3158.95,3442.35,499.84,485.58,20.01,0000 0000 0000 0000 000000
2014-07-08 07:07:29,-0.00,0.42,0.00,27.05,32.31,34.93,9.32,38.32,1008.09,2018.99,3319.00,3158.98,3442.56,499.59,485.30,20.06,0000 0000 0000 0000 000000
2014-07-08 07:12:30,0.01,0.42,0.00,27.03,32.28,34.83,9.37,38.30,1008.13,2018.99,3318.83,3158.95,3442.24,500.02,485.95,20.10,0000 0000 0000 0000 000000
2014-07-08 07:17:31,0.00,0.42,0.00,27.06,32.24,34.71,9.33,38.29,1007.97,2019.01,3318.51,3158.96,3442.16,499.94,485.62,20.14,0000 0000 0000 0000 000000
2014-07-08 07:22:32,0.03,0.42,0.00,27.10,32.20,34.68,9.46,38.37,1007.85,2019.17,3318.09,3158.97,3442.17,500.53,486.15,20.18,0000 0000 0000 0000 000000
2014-07-08 07:27:34,0.05,0.42,0.00,27.14,32.16,34.69,9.53,38.33,1007.83,2019.65,3318.00,3158.98,3442.19,500.44,485.86,20.22,0000 0000 0000 0000 000000
2014-07-08 07:32:35,0.01,0.42,0.00,27.18,32.12,34.61,9.37,38.23,1007.84,2019.94,3318.00,3158.98,3442.55,499.98,485.44,20.27,0000 0000 0000 0000 000000
2014-07-08 07:37:36,0.00,0.42,0.00,27.23,32.09,34.50,9.41,38.27,1007.83,2019.99,3318.00,3158.99,3442.80,500.18,485.57,20.31,0000 0000 0000 0000 000000
2014-07-08 07:42:37,-0.00,0.42,0.00,27.26,32.06,34.42,9.31,38.23,1007.84,2019.99,3318.00,3159.00,3442.85,500.14,485.60,20.35,0000 0000 0000 0000 000000
2014-07-08 07:47:38,0.00,0.42,0.00,27.29,32.03,34.33,9.39,38.29,1007.83,2020.00,3318.00,3159.00,3442.91,499.91,485.33,20.39,0000 0000 0000 0000 000000
2014-07-08 07:52:39,0.00,0.42,0.00,27.32,32.01,34.24,9.32,38.24,1007.83,2020.01,3317.99,3159.00,3442.92,499.66,485.01,20.43,0000 0000 0000 0000 000000
2014-07-08 07:57:41,0.00,0.42,0.00,27.34,31.99,34.21,9.36,38.24,1007.80,2020.07,3317.99,3159.00,3442.94,500.14,485.30,20.47,0000 0000 0000 0000 000000
2014-07-08 08:02:42,0.02,0.42,0.00,27.37,31.97,34.19,9.29,38.21,1007.80,2020.19,3317.90,3159.00,3442.83,499.70,484.94,20.52,0000 0000 0000 0000 000000
2014-07-08 08:07:44,0.06,0.42,0.00,27.40,31.96,34.17,9.29,38.27,1007.83,2020.46,3317.30,3159.00,3442.42,500.09,485.22,20.56,0000 0000 0000 0000 000000
2014-07-08 08:12:45,0.03,0.43,0.00,27.41,31.95,34.17,9.43,38.22,1007.83,2020.70,3317.06,3158.96,3442.12,500.17,485.38,20.60,0000 0000 0000 0000 000000
2014-07-08 08:17:46,0.02,0.43,0.00,27.41,31.94,34.16,9.31,38.20,1007.83,2020.87,3317.00,3158.88,3442.02,499.49,484.68,20.64,0000 0000 0000 0000 000000
2014-07-08 08:22:47,0.02,0.43,0.00,27.43,31.92,34.16,9.35,38.22,1007.83,2020.84,3316.93,3158.31,3441.99,499.81,485.09,20.68,0000 0000 0000 0000 000000
2014-07-08 08:27:49,0.02,0.43,0.00,27.46,31.92,34.16,9.33,38.14,1007.83,2020.93,3316.65,3158.19,3441.98,499.90,485.09,20.73,0000 0000 0000 0000 000000
2014-07-08 08:32:50,0.01,0.43,0.00,27.48,31.92,34.15,9.32,38.10,1007.82,2020.95,3316.04,3158.01,3441.83,499.81,485.00,20.77,0000 0000 0000 0000 000000
2014-07-08 08:37:51,0.03,0.43,0.00,27.49,31.92,34.16,9.36,38.17,1007.82,2020.95,3315.78,3157.86,3441.15,500.13,485.23,20.81,0000 0000 0000 0000 000000
2014-07-08 08:42:53,0.11,0.44,0.00,27.49,31.92,34.15,9.34,38.17,1007.83,2020.95,3313.93,3156.47,3439.88,499.67,484.67,20.85,0000 0000 0000 0000 000000
2014-07-08 08:47:54,0.42,0.44,0.00,27.50,31.92,34.16,9.32,38.02,1007.83,2020.99,3309.70,3152.77,3436.04,499.87,484.93,20.89,0000 0000 0000 0000 000000
2014-07-08 08:52:55,1.04,0.48,0.00,27.50,31.92,34.17,9.37,38.12,1007.83,2020.97,3293.94,3139.12,3421.45,500.29,485.46,20.94,0000 0000 0000 0000 000000
2014-07-08 08:57:57,0.29,0.51,0.00,27.50,31.92,34.17,9.35,38.17,1007.83,2020.98,3286.39,3132.85,3414.72,499.72,484.75,20.98,0000 0000 0000 0000 000000
2014-07-08 09:02:58,0.12,0.51,0.00,27.52,31.92,34.17,9.36,38.20,1007.83,2020.95,3283.81,3131.07,3412.79,499.89,484.88,21.02,0000 0000 0000 0000 000000
2014-07-08 09:07:59,0.06,0.52,0.00,27.54,31.92,34.18,9.29,38.19,1007.83,2020.96,3282.35,3130.06,3412.01,499.65,484.66,21.06,0000 0000 0000 0000 000000
2014-07-08 09:13:00,0.00,0.52,0.00,27.53,31.92,34.19,9.33,38.14,1007.83,2020.93,3282.02,3130.00,3411.96,499.70,484.78,21.10,0000 0000 0000 0000 000000
2014-07-08 09:18:02,0.00,0.52,0.00,27.53,31.92,34.19,9.26,38.27,1007.83,2020.92,3282.00,3130.00,3411.90,499.85,484.92,21.15,0000 0000 0000 0000 000000
2014-07-08 09:23:03,0.00,0.52,0.00,27.53,31.92,34.20,9.30,38.18,1007.83,2020.94,3282.00,3129.99,3411.79,499.98,484.98,21.19,0000 0000 0000 0000 000000
2014-07-08 09:28:04,0.00,0.52,0.00,27.54,31.93,34.21,9.45,38.27,1007.83,2020.94,3281.99,3129.98,3411.55,500.35,485.26,21.23,0000 0000 0000 0000 000000
2014-07-08 09:33:05,-0.00,0.52,0.00,27.55,31.93,34.22,9.28,38.19,1007.83,2020.92,3281.96,3129.99,3411.35,499.74,484.79,21.27,0000 0000 0000 0000 000000
2014-07-08 09:38:07,0.01,0.52,0.00,27.53,31.94,34.21,9.30,38.16,1007.84,2020.92,3281.87,3129.96,3411.15,499.83,484.90,21.31,0000 0000 0000 0000 000000
2014-07-08 09:43:08,0.01,0.52,0.00,27.53,31.95,34.22,9.29,38.02,1007.86,2020.88,3281.55,3129.86,3411.05,499.94,484.86,21.36,0000 0000 0000 0000 000000
2014-07-08 09:48:09,0.00,0.52,0.00,27.54,31.95,34.23,9.33,38.08,1007.87,2020.84,3281.20,3129.76,3411.02,499.91,484.82,21.40,0000 0000 0000 0000 000000
2014-07-08 09:53:11,-0.00,0.52,0.00,27.54,31.95,34.23,9.32,38.05,1007.98,2020.86,3281.21,3129.77,3411.02,499.92,485.04,21.44,0000 0000 0000 0000 000000
2014-07-08 09:58:12,0.01,0.52,0.00,27.54,31.95,34.23,9.39,38.08,1007.86,2020.85,3281.08,3129.53,3411.00,500.01,484.98,21.48,0000 0000 0000 0000 000000
2014-07-08 10:03:13,0.01,0.52,0.00,27.53,31.95,34.24,9.34,38.09,1007.85,2020.81,3281.00,3129.25,3411.00,499.98,484.98,21.52,0000 0000 0000 0000 000000
2014-07-08 10:08:14,-0.03,0.52,0.00,27.51,31.95,34.24,9.28,38.05,1007.84,2020.63,3281.00,3129.07,3410.98,499.79,484.66,21.56,0000 0000 0000 0000 000000
2014-07-08 10:13:15,0.00,0.52,0.00,27.51,31.95,34.25,9.42,38.13,1007.84,2020.45,3280.79,3129.00,3410.86,500.03,485.17,21.61,0000 0000 0000 0000 000000
2014-07-08 10:18:17,0.03,0.52,0.00,27.50,31.95,34.24,9.37,38.23,1007.84,2020.60,3280.34,3128.99,3410.54,500.55,485.55,21.65,0000 0000 0000 0000 000000
2014-07-08 10:23:18,0.00,0.52,0.00,27.49,31.96,34.25,9.37,38.14,1007.84,2020.67,3280.16,3128.99,3410.37,499.94,485.05,21.69,0000 0000 0000 0000 000000
2014-07-08 10:28:19,-0.00,0.52,0.00,27.50,31.97,34.26,9.35,38.15,1007.83,2020.60,3280.02,3128.98,3410.11,500.14,485.27,21.73,0000 0000 0000 0000 000000
2014-07-08 10:33:20,-0.03,0.52,0.00,27.49,31.97,34.26,9.32,38.19,1007.84,2020.27,3280.00,3128.72,3410.00,499.77,484.91,21.77,0000 0000 0000 0000 000000
2014-07-08 10:38:20,0.02,0.52,0.00,27.48,31.97,34.26,9.36,38.21,1007.84,2020.30,3279.96,3128.34,3410.00,499.87,484.89,21.82,0000 0000 0000 0000 000000
2014-07-08 10:43:22,0.03,0.52,0.00,27.49,31.97,34.27,9.39,38.30,1007.84,2020.33,3279.32,3128.04,3409.96,500.23,485.31,21.86,0000 0000 0000 0000 000000
2014-07-08 10:48:23,-0.01,0.52,0.00,27.50,31.97,34.26,9.26,38.23,1007.84,2020.29,3279.09,3128.00,3409.73,499.54,484.65,21.90,0000 0000 0000 0000 000000
2014-07-08 10:53:25,-0.00,0.52,0.00,27.51,31.97,34.26,9.45,38.27,1007.83,2020.12,3279.00,3128.00,3409.09,500.32,485.42,21.94,0000 0000 0000 0000 000000
2014-07-08 10:58:26,0.00,0.52,0.00,27.50,31.97,34.26,9.28,38.38,1007.84,2020.13,3278.84,3127.94,3409.01,499.92,484.85,21.98,0000 0000 0000 0000 000000
2014-07-08 11:03:27,0.02,0.52,0.00,27.50,31.97,34.26,9.38,38.52,1007.84,2020.03,3278.37,3127.43,3408.98,499.52,484.65,22.03,0000 0000 0000 0000 000000
2014-07-08 11:08:28,0.01,0.52,0.00,27.50,31.97,34.27,9.35,38.50,1007.85,2020.02,3278.02,3127.08,3408.89,500.15,485.24,22.07,0000 0000 0000 0000 000000
2014-07-08 11:13:30,0.01,0.52,0.00,27.49,31.98,34.26,9.32,38.39,1007.89,2020.02,3277.79,3127.00,3408.41,499.75,484.88,22.11,0000 0000 0000 0000 000000
2014-07-08 11:18:31,0.08,0.53,0.00,27.50,31.99,34.27,9.40,38.27,1008.01,2020.05,3276.38,3126.30,3407.64,500.14,485.39,22.15,0000 0000 0000 0000 000000
2014-07-08 11:23:33,0.15,0.53,0.00,27.50,32.00,34.27,9.29,38.25,1007.98,2020.04,3273.65,3124.52,3405.60,500.15,485.25,22.19,0000 0000 0000 0000 000000
2014-07-08 11:28:34,0.23,0.54,0.00,27.50,32.00,34.27,9.33,38.30,1007.89,2020.06,3269.74,3121.99,3402.57,499.84,484.92,22.24,0000 0000 0000 0000 000000
2014-07-08 11:33:35,0.27,0.55,0.00,27.50,32.00,34.27,9.34,38.28,1007.84,2020.07,3264.73,3118.72,3398.72,499.91,484.97,22.28,0000 0000 0000 0000 000000
2014-07-08 11:38:36,0.27,0.56,0.00,27.49,32.00,34.27,9.39,38.31,1007.85,2020.08,3259.75,3115.34,3394.70,499.92,484.98,22.32,0000 0000 0000 0000 000000
2014-07-08 11:43:37,0.24,0.57,0.00,27.50,32.00,34.26,9.40,38.32,1007.84,2020.02,3255.25,3112.29,3391.27,500.26,485.28,22.36,0000 0000 0000 0000 000000
2014-07-08 11:48:38,0.31,0.58,0.00,27.50,32.00,34.27,9.33,38.22,1007.83,2020.03,3249.57,3108.59,3387.09,500.27,485.30,22.40,0000 0000 0000 0000 000000
2014-07-08 11:53:40,0.25,0.60,0.00,27.51,32.00,34.27,9.37,38.19,1007.83,2020.04,3244.63,3105.29,3383.27,500.09,485.04,22.44,0000 0000 0000 0000 000000
2014-07-08 11:58:41,0.21,0.61,0.00,27.51,32.00,34.27,9.36,38.11,1007.83,2020.10,3240.81,3102.74,3380.41,500.29,485.20,22.49,0000 0000 0000 0000 000000
2014-07-08 12:03:42,0.18,0.61,0.00,27.50,32.00,34.28,9.38,38.11,1007.83,2020.08,3237.33,3100.42,3377.88,500.25,485.28,22.53,0000 0000 0000 0000 000000
2014-07-08 12:08:43,0.16,0.62,0.00,27.51,32.00,34.28,9.37,38.08,1007.83,2020.06,3234.25,3098.36,3375.60,500.10,485.16,22.57,0000 0000 0000 0000 000000
2014-07-08 12:13:44,0.17,0.63,0.00,27.51,32.00,34.28,9.31,37.98,1007.83,2020.06,3231.27,3096.37,3373.42,499.86,484.87,22.61,0000 0000 0000 0000 000000
2014-07-08 12:18:45,0.19,0.64,0.00,27.52,32.00,34.27,9.31,38.12,1007.82,2020.05,3227.82,3093.93,3370.88,500.04,485.03,22.65,0000 0000 0000 0000 000000
2014-07-08 12:23:46,0.16,0.64,0.00,27.51,32.00,34.28,9.31,37.98,1007.83,2020.02,3224.71,3091.82,3368.55,500.08,485.12,22.70,0000 0000 0000 0000 000000
2014-07-08 12:28:48,0.11,0.65,0.00,27.51,32.00,34.28,9.32,38.00,1007.83,2020.02,3222.33,3090.19,3366.68,500.18,485.17,22.74,0000 0000 0000 0000 000000
2014-07-08 12:33:49,0.06,0.65,0.00,27.51,32.00,34.28,9.35,38.08,1007.83,2020.01,3221.04,3089.11,3365.66,499.82,484.79,22.78,0000 0000 0000 0000 000000
2014-07-08 12:38:50,0.04,0.66,0.00,27.50,32.00,34.28,9.33,38.03,1007.83,2020.00,3220.15,3088.67,3365.05,499.93,484.86,22.82,0000 0000 0000 0000 000000
2014-07-08 12:43:52,0.05,0.66,0.00,27.50,32.00,34.28,9.35,38.02,1007.83,2020.00,3219.09,3088.02,3364.22,500.19,485.27,22.86,0000 0000 0000 0000 000000
2014-07-08 12:48:53,0.02,0.66,0.00,27.49,32.00,34.28,9.42,38.06,1007.85,2020.00,3218.64,3087.71,3363.99,500.04,485.04,22.91,0000 0000 0000 0000 000000
2014-07-08 12:53:54,0.05,0.66,0.00,27.51,32.00,34.28,9.31,38.03,1007.85,2020.00,3217.78,3087.03,3363.29,499.89,484.92,22.95,0000 0000 0000 0000 000000
2014-07-08 12:58:55,0.07,0.66,0.00,27.51,32.00,34.28,9.28,38.05,1007.85,2020.00,3216.66,3086.42,3362.58,499.63,484.67,22.99,0000 0000 0000 0000 000000